SHT8R EGLL-EGPH

Flight info

Callsign SHT8R
Flight time 1h 0m
Altitude 30000
Route ULTIB1J ULTIB T420 TNT UN57 POL UN601 RIBEL DCT INPIP INPIP1E
Aircraft A320/M-SDE3FGIJ1KRWXY/SB1

Departure

Time 2026-04-21 10:13
Airport London Heathrow Airport (EGLL)

Arrival

Time 2026-04-21 11:14
Airport Edinburgh Airport (EGPH)
Time Latitude Longitude Altitude Speed Heading
2026-04-21 08:44 51.47399 -0.48587 86 ft 0 kts 270°
2026-04-21 09:58 51.47399 -0.48580 89 ft 2 kts 270°
2026-04-21 09:58 51.47400 -0.48549 86 ft 3 kts 270°
2026-04-21 09:59 51.47400 -0.48518 86 ft 3 kts 264°
2026-04-21 09:59 51.47404 -0.48490 87 ft 3 kts 227°
2026-04-21 09:59 51.47417 -0.48475 90 ft 2 kts 183°
2026-04-21 09:59 51.47428 -0.48475 88 ft 3 kts 179°
2026-04-21 10:00 51.47439 -0.48475 86 ft 0 kts 180°
2026-04-21 10:05 51.47435 -0.48475 89 ft 2 kts 179°
2026-04-21 10:06 51.47408 -0.48474 86 ft 5 kts 179°
2026-04-21 10:06 51.47363 -0.48474 86 ft 8 kts 179°
2026-04-21 10:06 51.47300 -0.48473 86 ft 10 kts 179°
2026-04-21 10:06 51.47222 -0.48472 89 ft 12 kts 179°
2026-04-21 10:07 51.47127 -0.48471 88 ft 15 kts 180°
2026-04-21 10:07 51.47016 -0.48470 87 ft 17 kts 180°
2026-04-21 10:07 51.46906 -0.48469 89 ft 14 kts 180°
2026-04-21 10:07 51.46836 -0.48469 86 ft 6 kts 179°
2026-04-21 10:08 51.46832 -0.48469 86 ft 0 kts 179°
2026-04-21 10:08 51.46816 -0.48468 86 ft 4 kts 179°
2026-04-21 10:08 51.46780 -0.48468 86 ft 6 kts 179°
2026-04-21 10:09 51.46728 -0.48468 86 ft 9 kts 180°
2026-04-21 10:09 51.46661 -0.48467 86 ft 10 kts 179°
2026-04-21 10:09 51.46619 -0.48466 86 ft 4 kts 179°
2026-04-21 10:09 51.46601 -0.48466 86 ft 0 kts 179°
2026-04-21 10:11 51.46595 -0.48466 86 ft 3 kts 179°
2026-04-21 10:12 51.46564 -0.48466 86 ft 6 kts 179°
2026-04-21 10:12 51.46515 -0.48465 86 ft 8 kts 179°
2026-04-21 10:12 51.46477 -0.48432 90 ft 7 kts 97°
2026-04-21 10:12 51.46477 -0.48419 90 ft 4 kts 91°
2026-04-21 10:13 51.46479 -0.47976 87 ft 74 kts 90°
2026-04-21 10:13 51.46482 -0.46839 89 ft 127 kts 90°
2026-04-21 10:13 51.46479 -0.45240 345 ft 147 kts 88°
2026-04-21 10:13 51.46496 -0.43613 1019 ft 147 kts 84°
2026-04-21 10:14 51.46553 -0.41970 1574 ft 154 kts 76°
2026-04-21 10:14 51.47067 -0.40358 1842 ft 176 kts 50°
2026-04-21 10:14 51.47926 -0.38749 2132 ft 202 kts 51°
2026-04-21 10:14 51.48873 -0.36948 2588 ft 226 kts 51°
2026-04-21 10:15 51.49908 -0.34970 3342 ft 236 kts 51°
2026-04-21 10:15 51.50973 -0.32927 4249 ft 242 kts 52°
2026-04-21 10:15 51.52035 -0.30776 5171 ft 245 kts 62°
2026-04-21 10:15 51.52682 -0.28251 6077 ft 246 kts 72°
2026-04-21 10:16 51.53234 -0.25639 6977 ft 250 kts 73°
2026-04-21 10:16 51.53798 -0.22961 7806 ft 255 kts 72°
2026-04-21 10:16 51.54518 -0.20332 8634 ft 261 kts 54°
2026-04-21 10:16 51.55998 -0.18586 9419 ft 275 kts 21°
2026-04-21 10:17 51.57932 -0.18439 10282 ft 290 kts 349°
2026-04-21 10:17 51.59762 -0.20005 10727 ft 315 kts 319°
2026-04-21 10:17 51.61287 -0.22750 10929 ft 340 kts 315°
2026-04-21 10:17 51.63147 -0.25155 11372 ft 347 kts 332°
2026-04-21 10:18 51.65237 -0.27155 12060 ft 351 kts 332°
2026-04-21 10:18 51.67347 -0.29173 12811 ft 354 kts 332°
2026-04-21 10:18 51.69335 -0.31079 13499 ft 356 kts 332°
2026-04-21 10:18 51.71608 -0.33265 14285 ft 359 kts 332°
2026-04-21 10:19 51.73768 -0.35346 14924 ft 362 kts 331°
2026-04-21 10:19 51.75907 -0.37415 15581 ft 364 kts 332°
2026-04-21 10:19 51.78083 -0.39525 16177 ft 365 kts 330°
2026-04-21 10:19 51.80255 -0.41635 16856 ft 366 kts 330°
2026-04-21 10:20 51.82450 -0.43766 17430 ft 371 kts 331°
2026-04-21 10:20 51.84685 -0.45934 17934 ft 377 kts 332°
2026-04-21 10:20 51.86952 -0.48133 18512 ft 381 kts 331°
2026-04-21 10:20 51.89238 -0.50357 19078 ft 385 kts 331°
2026-04-21 10:21 51.91532 -0.52593 19777 ft 384 kts 330°
2026-04-21 10:21 51.93811 -0.54819 20546 ft 381 kts 330°
2026-04-21 10:21 51.96057 -0.57011 21276 ft 380 kts 329°
2026-04-21 10:21 51.98348 -0.59248 21950 ft 379 kts 329°
2026-04-21 10:22 52.00614 -0.61460 22578 ft 380 kts 329°
2026-04-21 10:22 52.02879 -0.63673 23171 ft 381 kts 328°
2026-04-21 10:22 52.05153 -0.65904 23718 ft 384 kts 329°
2026-04-21 10:22 52.07444 -0.68157 24112 ft 388 kts 328°
2026-04-21 10:23 52.09774 -0.70454 24501 ft 392 kts 328°
2026-04-21 10:23 52.12017 -0.72665 24941 ft 393 kts 328°
2026-04-21 10:23 52.14453 -0.75066 25379 ft 394 kts 328°
2026-04-21 10:23 52.16800 -0.77383 25805 ft 395 kts 328°
2026-04-21 10:24 52.19157 -0.79707 26258 ft 396 kts 327°
2026-04-21 10:24 52.21178 -0.81706 26642 ft 396 kts 327°
2026-04-21 10:24 52.23869 -0.84371 27129 ft 397 kts 327°
2026-04-21 10:24 52.26227 -0.86713 27557 ft 398 kts 327°
2026-04-21 10:25 52.28572 -0.89042 27993 ft 399 kts 327°
2026-04-21 10:25 52.30996 -0.91447 28258 ft 405 kts 327°
2026-04-21 10:25 52.33378 -0.93810 28626 ft 407 kts 327°
2026-04-21 10:25 52.35803 -0.96225 29024 ft 408 kts 327°
2026-04-21 10:26 52.38222 -0.98641 29445 ft 408 kts 327°
2026-04-21 10:26 52.40647 -1.01068 29875 ft 408 kts 326°
2026-04-21 10:26 52.43060 -1.03486 30257 ft 407 kts 326°
2026-04-21 10:27 52.47881 -1.08325 30341 ft 404 kts 326°
2026-04-21 10:27 52.52671 -1.13142 30339 ft 404 kts 326°
2026-04-21 10:28 52.57479 -1.17983 30318 ft 406 kts 326°
2026-04-21 10:28 52.62297 -1.22849 30310 ft 406 kts 326°
2026-04-21 10:29 52.67106 -1.27719 30300 ft 404 kts 326°
2026-04-21 10:29 52.71782 -1.32460 30300 ft 394 kts 326°
2026-04-21 10:30 52.76432 -1.37191 30390 ft 393 kts 326°
2026-04-21 10:30 52.81119 -1.41987 30380 ft 398 kts 326°
2026-04-21 10:31 52.85831 -1.46827 30381 ft 399 kts 326°
2026-04-21 10:31 52.90549 -1.51669 30358 ft 399 kts 326°
2026-04-21 10:32 52.95147 -1.56395 30399 ft 398 kts 325°
2026-04-21 10:32 52.99965 -1.61364 30422 ft 398 kts 326°
2026-04-21 10:33 53.04650 -1.66174 30395 ft 400 kts 328°
2026-04-21 10:33 53.09850 -1.69764 30402 ft 403 kts 336°
2026-04-21 10:34 53.15119 -1.73011 30404 ft 404 kts 336°
2026-04-21 10:34 53.20358 -1.76251 30405 ft 404 kts 336°
2026-04-21 10:35 53.24619 -1.78910 30428 ft 405 kts 337°
2026-04-21 10:35 53.30930 -1.82859 30402 ft 407 kts 337°
2026-04-21 10:36 53.36248 -1.86191 30405 ft 409 kts 337°
2026-04-21 10:36 53.41577 -1.89533 30403 ft 409 kts 337°
2026-04-21 10:37 53.46922 -1.92896 30417 ft 410 kts 337°
2026-04-21 10:37 53.52258 -1.96268 30428 ft 410 kts 337°
2026-04-21 10:38 53.57596 -1.99654 30434 ft 410 kts 337°
2026-04-21 10:38 53.62937 -2.03042 30437 ft 410 kts 337°
2026-04-21 10:39 53.68269 -2.06426 30436 ft 410 kts 337°
2026-04-21 10:39 53.73578 -2.09805 30416 ft 410 kts 336°
2026-04-21 10:40 53.78897 -2.13310 30410 ft 411 kts 335°
2026-04-21 10:40 53.84208 -2.16985 30423 ft 411 kts 335°
2026-04-21 10:41 53.88603 -2.20029 30423 ft 411 kts 335°
2026-04-21 10:41 53.93889 -2.23661 30443 ft 412 kts 335°
2026-04-21 10:42 53.99245 -2.27330 30445 ft 412 kts 335°
2026-04-21 10:42 54.04542 -2.30974 30438 ft 413 kts 336°
2026-04-21 10:43 54.09891 -2.34673 30428 ft 414 kts 335°
2026-04-21 10:43 54.15227 -2.38368 30450 ft 414 kts 336°
2026-04-21 10:44 54.20578 -2.42085 30440 ft 415 kts 335°
2026-04-21 10:44 54.25955 -2.45835 30452 ft 425 kts 337°
2026-04-21 10:45 54.31466 -2.49695 30458 ft 429 kts 337°
2026-04-21 10:45 54.36949 -2.53535 30460 ft 430 kts 337°
2026-04-21 10:46 54.42495 -2.57426 30470 ft 429 kts 337°
2026-04-21 10:46 54.48034 -2.61327 30472 ft 430 kts 338°
2026-04-21 10:47 54.53612 -2.65273 30469 ft 439 kts 339°
2026-04-21 10:47 54.59267 -2.69285 30472 ft 438 kts 337°
2026-04-21 10:48 54.64847 -2.73252 29751 ft 430 kts 338°
2026-04-21 10:48 54.67607 -2.75224 29087 ft 428 kts 338°
2026-04-21 10:48 54.70351 -2.77186 28488 ft 425 kts 338°
2026-04-21 10:48 54.73079 -2.79139 27829 ft 425 kts 340°
2026-04-21 10:49 54.75815 -2.81098 27169 ft 425 kts 339°
2026-04-21 10:49 54.78509 -2.83032 26625 ft 422 kts 340°
2026-04-21 10:49 54.81229 -2.84990 26129 ft 419 kts 340°
2026-04-21 10:49 54.83929 -2.86933 25637 ft 417 kts 340°
2026-04-21 10:50 54.86604 -2.88858 25162 ft 415 kts 340°
2026-04-21 10:50 54.89257 -2.90768 24711 ft 412 kts 340°
2026-04-21 10:50 54.91870 -2.92651 24290 ft 410 kts 340°
2026-04-21 10:50 54.94501 -2.94553 23826 ft 408 kts 340°
2026-04-21 10:51 54.97113 -2.96446 23350 ft 406 kts 340°
2026-04-21 10:51 54.99707 -2.98331 22878 ft 403 kts 341°
2026-04-21 10:51 55.02288 -3.00206 22421 ft 400 kts 341°
2026-04-21 10:51 55.04849 -3.02067 21953 ft 398 kts 341°
2026-04-21 10:52 55.07394 -3.03920 21483 ft 395 kts 340°
2026-04-21 10:52 55.09923 -3.05768 21020 ft 392 kts 340°
2026-04-21 10:52 55.12437 -3.07604 20550 ft 390 kts 340°
2026-04-21 10:52 55.14933 -3.09428 20080 ft 387 kts 340°
2026-04-21 10:53 55.17406 -3.11237 19611 ft 385 kts 340°
2026-04-21 10:53 55.19875 -3.13046 19133 ft 382 kts 340°
2026-04-21 10:53 55.22309 -3.14839 18403 ft 376 kts 340°
2026-04-21 10:53 55.24670 -3.16587 18051 ft 357 kts 341°
2026-04-21 10:54 55.26902 -3.18245 17645 ft 342 kts 341°
2026-04-21 10:54 55.29114 -3.19612 17043 ft 332 kts 352°
2026-04-21 10:54 55.31345 -3.20103 16617 ft 324 kts
2026-04-21 10:54 55.33574 -3.19857 16278 ft 319 kts 10°
2026-04-21 10:55 55.35773 -3.19504 15793 ft 315 kts 10°
2026-04-21 10:55 55.37945 -3.19166 15165 ft 312 kts 10°
2026-04-21 10:55 55.40100 -3.18836 14561 ft 309 kts
2026-04-21 10:55 55.42235 -3.18508 13909 ft 307 kts
2026-04-21 10:56 55.44353 -3.18177 13269 ft 303 kts 10°
2026-04-21 10:56 55.46441 -3.17850 12610 ft 300 kts
2026-04-21 10:56 55.48524 -3.17523 12068 ft 300 kts
2026-04-21 10:56 55.50585 -3.17201 11679 ft 296 kts
2026-04-21 10:57 55.52606 -3.16884 11085 ft 294 kts
2026-04-21 10:57 55.54658 -3.16559 10499 ft 291 kts
2026-04-21 10:57 55.56669 -3.16240 9851 ft 289 kts
2026-04-21 10:57 55.58664 -3.15921 9234 ft 285 kts 10°
2026-04-21 10:58 55.60609 -3.15613 8684 ft 284 kts
2026-04-21 10:58 55.62571 -3.15301 8369 ft 282 kts
2026-04-21 10:58 55.64516 -3.14994 8058 ft 279 kts
2026-04-21 10:58 55.66400 -3.15253 7829 ft 269 kts 347°
2026-04-21 10:59 55.68060 -3.16745 7430 ft 269 kts 322°
2026-04-21 10:59 55.69216 -3.19228 7223 ft 256 kts 298°
2026-04-21 10:59 55.69763 -3.22166 6827 ft 249 kts 275°
2026-04-21 10:59 55.69663 -3.25190 6495 ft 245 kts 252°
2026-04-21 11:00 55.69150 -3.28053 6189 ft 244 kts 249°
2026-04-21 11:00 55.68628 -3.30913 5891 ft 243 kts 249°
2026-04-21 11:00 55.68115 -3.33757 5569 ft 242 kts 250°
2026-04-21 11:00 55.67604 -3.36585 5296 ft 241 kts 249°
2026-04-21 11:01 55.67093 -3.39409 4979 ft 240 kts 250°
2026-04-21 11:01 55.66585 -3.42199 4647 ft 237 kts 250°
2026-04-21 11:01 55.66072 -3.44997 4341 ft 239 kts 250°
2026-04-21 11:02 55.65052 -3.50531 4000 ft 240 kts 250°
2026-04-21 11:02 55.64734 -3.53424 3997 ft 240 kts 271°
2026-04-21 11:02 55.65025 -3.56221 3991 ft 223 kts 296°
2026-04-21 11:02 55.65793 -3.58453 3991 ft 206 kts 316°
2026-04-21 11:03 55.66817 -3.60174 3999 ft 201 kts 324°
2026-04-21 11:03 55.67856 -3.61841 3999 ft 201 kts 324°
2026-04-21 11:03 55.68890 -3.63508 3994 ft 201 kts 323°
2026-04-21 11:03 55.69944 -3.65122 3996 ft 199 kts 326°
2026-04-21 11:04 55.71017 -3.66679 3997 ft 200 kts 326°
2026-04-21 11:04 55.72098 -3.68225 3999 ft 199 kts 326°
2026-04-21 11:04 55.73177 -3.69773 3995 ft 199 kts 327°
2026-04-21 11:04 55.74247 -3.71318 4000 ft 198 kts 326°
2026-04-21 11:05 55.75321 -3.72871 4004 ft 200 kts 326°
2026-04-21 11:05 55.76371 -3.74567 4007 ft 207 kts 322°
2026-04-21 11:05 55.77398 -3.76377 4002 ft 208 kts 320°
2026-04-21 11:05 55.78558 -3.77775 3995 ft 197 kts 349°
2026-04-21 11:06 55.79823 -3.78014 4022 ft 171 kts 15°
2026-04-21 11:06 55.80867 -3.77377 3999 ft 148 kts 37°
2026-04-21 11:06 55.81606 -3.76287 3995 ft 131 kts 55°
2026-04-21 11:06 55.82102 -3.74955 4003 ft 129 kts 62°
2026-04-21 11:07 55.82571 -3.73597 4003 ft 129 kts 62°
2026-04-21 11:07 55.83041 -3.72234 4002 ft 129 kts 62°
2026-04-21 11:07 55.83506 -3.70885 4006 ft 129 kts 61°
2026-04-21 11:07 55.83973 -3.69527 4007 ft 129 kts 61°
2026-04-21 11:08 55.84443 -3.68161 3968 ft 128 kts 62°
2026-04-21 11:08 55.84910 -3.66802 3830 ft 130 kts 60°
2026-04-21 11:08 55.85377 -3.65442 3692 ft 129 kts 60°
2026-04-21 11:08 55.85842 -3.64087 3534 ft 127 kts 61°
2026-04-21 11:09 55.86303 -3.62744 3352 ft 128 kts 61°
2026-04-21 11:09 55.86764 -3.61398 3189 ft 126 kts 62°
2026-04-21 11:09 55.87220 -3.60068 3030 ft 127 kts 62°
2026-04-21 11:09 55.87678 -3.58730 2835 ft 127 kts 61°
2026-04-21 11:10 55.88132 -3.57403 2649 ft 124 kts 61°
2026-04-21 11:10 55.88586 -3.56076 2471 ft 126 kts 61°
2026-04-21 11:10 55.89035 -3.54762 2298 ft 124 kts 60°
2026-04-21 11:10 55.89486 -3.53444 2119 ft 125 kts 61°
2026-04-21 11:11 55.89938 -3.52119 1955 ft 126 kts 62°
2026-04-21 11:11 55.90387 -3.50805 1781 ft 122 kts 62°
2026-04-21 11:11 55.90832 -3.49500 1605 ft 123 kts 61°
2026-04-21 11:11 55.91274 -3.48204 1428 ft 124 kts 60°
2026-04-21 11:12 55.91725 -3.46876 1243 ft 123 kts 62°
2026-04-21 11:12 55.92172 -3.45559 1062 ft 124 kts 60°
2026-04-21 11:12 55.92618 -3.44258 903 ft 122 kts 61°
2026-04-21 11:12 55.93063 -3.42948 728 ft 123 kts 59°
2026-04-21 11:13 55.93506 -3.41650 538 ft 122 kts 58°
2026-04-21 11:13 55.93944 -3.40369 386 ft 122 kts 60°
2026-04-21 11:13 55.94387 -3.39060 210 ft 124 kts 59°
2026-04-21 11:13 55.94814 -3.37798 114 ft 105 kts 60°
2026-04-21 11:14 55.95054 -3.37084 113 ft 40 kts 58°
2026-04-21 11:14 55.95169 -3.36747 114 ft 28 kts 58°
2026-04-21 11:14 55.95252 -3.36505 111 ft 12 kts 59°
2026-04-21 11:14 55.95226 -3.36387 113 ft 9 kts 144°
2026-04-21 11:15 55.95187 -3.36347 115 ft 5 kts 150°
2026-04-21 11:15 55.95158 -3.36317 116 ft 6 kts 150°
2026-04-21 11:15 55.95118 -3.36331 113 ft 8 kts 228°
2026-04-21 11:15 55.95084 -3.36412 115 ft 8 kts 207°
2026-04-21 11:16 55.95030 -3.36388 115 ft 8 kts 187°
2026-04-21 11:16 55.94993 -3.36458 116 ft 6 kts 239°
2026-04-21 11:16 55.94964 -3.36479 113 ft 6 kts 157°
2026-04-21 11:16 55.94934 -3.36446 114 ft 3 kts 147°
2026-04-21 11:17 55.94920 -3.36429 115 ft 0 kts 147°